Location: Knowlton
(51.2333°N, 1.2667°E)
Time: 08:00:30
(UTC+00:00)

ISS - Pass Details

Date: 02 October 2021
Orbit: 417 x 423 km, 51.6° (Epoch: 24 October)

Event Time Altitude Azimuth Distance (km) Brightness Sun altitude
Rises 19:03:47 0° 284° (WNW) 2,366 2.0 -15.4°
Reaches altitude 10° 19:06:03 10° 273° (W) 1,500 0.4 -15.8°
Maximum altitude 19:09:00 29° 212° (SSW) 800 -2.2 -16.2°
Enters shadow 19:10:32 20° 167° (SSE) 1,034 -2.0 -16.4°
